YAOGAN-36 01B (53946 NORAD) Tracking and Keplerian Element Data

This shows tracking and keplerian element data for the satellite.

Feedback or suggestion? Click here.




ElementValue
Catalog53946
NameYAOGAN-36 01B
Epoch Orbit844
Epoch Day325.13909679
Epoch Year2022
RAAN195.6169
Inclination34.9979
Eccentricity0.0005923
Argument of Perigee37.2984
Mean Anonmoly101.9129
Mean Motion15.22911953
Decay Rate8.788E-05
L11 53946U 22120D 22325.13909679 .00008788 00000+0 36673-3 0 9990
L22 53946 34.9979 195.6169 0005923 37.2984 101.9129 15.22911953 8446



Live tracking and technical data element details for YAOGAN-36 01B (NORAD 53946). YAOGAN-36 01B can be tracked NOW for your location showing map with azimuth and elevation plus other details from your city location.







IsCatalogInMostPopularTable: catalog: 53946, numindb: 2
Update: records affected: 1



GetName: 53946 YAOGAN-36 01B

Hit Count: updated at: Thu, 08 Dec 2022 09:47:22 GMT